Hourly Data Report for September 18, 2017

All times are specified in Local Standard Time (LST). Add 1 hour to adjust for Daylight Saving Time where and when it is observed.

KUGAARUK CLIMATE
NUNAVUT

68°32'15.060" N
89°47'47.020" W
15.80 m
2303094
71407
NBB

Download Data

Hourly Data (September 2017)
Hourly Data Report for September 18, 2017
Temp Definition
°C
Dew Point Temp Definition
°C
Rel Hum Definition
%
Wind Dir Definition
10's deg

Wind Spd Definition
km/h
Visibility Definition
km
Stn Press Definition
kPa
Hmdx Definition


Wind Chill Definition


Weather Definition


TIME
00:00 8.1 4.0 76 23 29   100.72     LegendNANA
01:00 7.0 3.5 78 23 25   100.76     LegendNANA
02:00 6.5 3.5 81 23 25   100.78     LegendNANA
03:00 7.0 3.8 80 23 30   100.75     LegendNANA
04:00 6.6 3.6 81 22 32   100.79     LegendNANA
05:00 6.8 3.8 81 22 35   100.78     LegendNANA
06:00 6.9 3.8 80 23 34   100.80     LegendNANA
07:00 7.1 3.8 80 23 34   100.81     LegendNANA
08:00 7.2 3.9 79 22 37   100.84     LegendNANA
09:00 7.3 4.1 80 23 30   100.87     LegendNANA
10:00 7.6 4.3 80 23 27   100.89     LegendNANA
11:00 7.5 4.1 79 23 29   100.93     LegendNANA
12:00 6.4 4.3 87 24 18   100.99     LegendNANA
13:00 5.8 4.4 91 26 13   101.03     LegendNANA
14:00 5.9 4.6 91 25 11   101.08     LegendNANA
15:00 3.7 3.0 95 1 19   101.14     LegendNANA
16:00 2.1 1.6 96 2 20   101.20     LegendNANA
17:00 1.8 0.8 93 3 18   101.27     LegendNANA
18:00 1.5 0.5 93 2 19   101.31     LegendNANA
19:00 1.0 -0.1 92 4 13   101.37     LegendNANA
20:00 0.5 -0.7 92 3 21   101.40     LegendNANA
21:00 0.3 -0.8 92 3 21   101.42     LegendNANA
22:00 0.4 -0.8 91 4 15   101.49     LegendNANA
23:00 0.2 -1.2 90 4 16   101.54     LegendNANA

Notes on Data Quality.

Legend

  • E = Estimated
  • M = Missing
  • NA = Not Available
  • ‡ = Partner data that is not subject to review by the National Climate Archives
Date modified: